Temp
87 87 87 87 88 89 88 88 90 90 89 92 92 91 91 91 91 92 92 92 91 91 91 90 89 89 90 90 89 89 89 89 90 91 90 90 90 90 90 90 90 89
87 87 87 87 87 88 89 90 89 89 89 89 92 93 91 91 92 92 91 91 91 91 91 91 90 89 89 90 89 89 88 89 88 92 89 89 89 90 91 90 90 90
88 87 87 87 89 89 91 90 89 90 91 91 91 92 93 92 92 91 91 91 91 93 91 90 90 89 90 90 89 89 89 88 87 92 89 88 90 90 90 93 92 91
87 88 89 90 90 89 90 90 90 89 91 91 91 93 93 94 92 92 90 90 91 91 92 92 91 92 90 90 89 89 89 88 89 89 89 88 89 90 90 91 92 92
88 88 90 90 90 89 90 89 91 91 91 91 93 92 91 90 91 92 91 90 89 91 91 90 91 91 90 89 89 88 89 90 89 88 88 88 89 89 91 91 90 90
88 88 88 89 89 89 90 90 90 91 91 93 92 93 92 91 91 91 91 91 92 92 93 93 92 92 92 90 89 89 90 91 92 89 87 87 89 91 92 91 89 88
89 88 89 90 91 90 89 89 90 90 92 93 92 91 92 92 90 90 91 91 92 92 93 91 90 91 91 90 89 88 89 89 90 89 87 88 88 88 91 90 89 88
90 91 90 90 90 90 89 91 91 90 91 91 92 91 92 93 91 92 91 91 92 91 90 92 90 89 92 91 89 88 89 91 90 88 87 88 88 87 88 90 89 87
91 90 90 90 91 92 93 93 92 92 92 91 92 94 92 92 92 93 90 90 90 90 89 90 89 90 90 90 90 88 88 90 91 89 88 88 88 87 89 89 89 88
90 91 92 92 92 93 93 94 95 94 92 92 93 94 93 91 92 92 91 89 89 89 89 89 89 90 90 90 89 89 88 88 89 89 89 89 89 90 90 89 89 88
92 93 92 92 93 95 95 95 96 96 94 93 93 94 95 93 91 91 90 89 89 89 89 89 89 89 89 91 91 91 90 90 89 89 89 89 89 89 89 89 89 90
91 92 93 93 94 95 96 96 97 96 96 94 94 93 94 95 92 92 91 89 89 89 89 89 89 89 89 90 92 92 91 91 91 90 90 90 90 90 90 90 90 90
92 92 92 94 93 95 96 96 96 97 97 96 94 94 94 95 95 92 91 90 89 90 90 89 89 90 89 89 90 90 90 90 91 91 90 91 91 92 93 92 92 92
92 92 93 92 92 92 93 96 96 96 95 95 94 93 95 95 96 94 93 92 91 90 90 90 90 90 89 89 89 90 90 90 90 90 92 91 91 92 93 94 94 94
91 92 93 91 92 91 92 93 94 94 94 94 93 94 96 96 96 96 93 91 92 90 90 91 91 90 91 90 89 89 90 91 90 90 91 90 91 93 93 92 94 95
90 90 90 90 90 89 89 91 93 93 94 93 92 93 93 93 93 94 95 93 91 91 91 91 91 92 84 75 79 90 90 92 91 90 90 90 90 90 92 93 94 96
89 89 89 88 88 89 89 89 90 91 91 90 90 91 91 90 92 93 94 94 93 92 92 92 92 92 74 68 70 73 87 90 90 89 89 89 90 88 88 91 93 94
89 88 87 87 88 87 87 88 89 89 89 89 89 90 89 91 91 91 91 93 94 94 93 93 93 79 69 67 68 68 74 89 92 91 91 90 90 90 90 91 91 94
88 88 87 87 87 87 87 87 87 88 88 89 89 89 90 88 88 90 90 91 93 91 93 94 95 76 66 65 66 66 67 78 92 92 92 92 91 90 90 90 90 90
88 87 87 87 87 87 87 87 86 86 89 91 91 89 88 88 90 89 89 88 90 90 90 93 94 76 65 63 64 64 65 71 89 91 91 91 91 91 91 90 89 89
87 87 86 87 87 87 86 86 86 86 87 90 92 91 88 87 89 89 89 89 91 91 91 93 97 70 63 62 62 61 63 68 87 89 89 90 90 90 90 91 90 89
88 87 87 87 87 86 86 86 86 86 86 88 90 91 91 91 90 91 91 90 91 91 91 91 95 70 61 61 60 60 61 78 85 85 87 88 89 89 90 89 90 90
89 89 87 87 87 86 86 86 86 86 87 88 89 91 92 91 91 92 91 92 91 90 90 90 94 76 60 59 59 58 64 83 84 86 85 86 87 88 89 89 90 90
89 89 87 87 87 86 86 88 89 89 89 89 89 90 92 94 93 92 92 92 92 92 92 91 93 79 59 58 57 57 69 84 84 85 85 85 86 87 89 88 89 84
91 90 88 88 87 87 88 88 88 88 90 90 91 92 91 92 92 92 93 93 96 95 82 89 94 82 58 60 56 56 69 85 85 85 84 85 87 87 88 89 88 85
91 88 88 88 87 88 88 89 90 91 91 91 91 92 92 93 93 92 92 93 95 95 95 93 92 94 74 57 56 55 60 83 86 85 84 85 86 86 87 87 88 89
MSLP
1015.38 1015.58 1016.02 1016.22 1016.30 1016.34 1016.54 1016.82 1016.86 1017.18 1017.34 1017.26 1017.54 1017.62 1017.82 1017.86 1017.94 1018.14 1018.26 1018.42 1018.70 1018.98 1019.10 1019.30 1019.42 1019.66 1019.70 1019.82 1019.94 1020.14 1020.34 1020.42 1020.42 1020.34 1020.50 1020.58 1020.70 1020.74 1020.90 1020.90 1020.82 1020.90
1014.98 1015.22 1015.50 1015.74 1015.98 1016.02 1016.10 1016.18 1016.50 1016.66 1016.94 1016.98 1016.94 1017.06 1017.22 1017.46 1017.66 1017.90 1018.14 1018.34 1018.50 1018.74 1018.82 1019.02 1019.22 1019.42 1019.58 1019.66 1019.82 1020.10 1020.26 1020.34 1020.54 1020.10 1020.46 1020.58 1020.54 1020.46 1020.58 1020.54 1020.62 1020.50
1014.54 1014.90 1015.22 1015.54 1015.66 1015.74 1015.74 1015.82 1016.06 1016.26 1016.42 1016.50 1016.62 1016.78 1016.98 1017.10 1017.42 1017.58 1017.78 1018.06 1018.30 1018.38 1018.58 1018.74 1018.94 1019.14 1019.34 1019.46 1019.62 1019.86 1020.06 1020.30 1020.46 1020.06 1020.22 1020.46 1020.26 1020.34 1020.22 1020.10 1020.22 1020.34
1014.14 1014.38 1014.62 1014.86 1015.06 1015.30 1015.38 1015.62 1015.86 1016.02 1016.02 1016.34 1016.50 1016.42 1016.58 1016.70 1017.02 1017.34 1017.58 1017.82 1018.06 1018.26 1018.26 1018.42 1018.70 1018.78 1019.02 1019.22 1019.46 1019.66 1019.74 1019.94 1019.90 1019.94 1020.18 1020.18 1020.14 1020.06 1020.06 1020.02 1019.98 1020.02
1013.62 1013.94 1014.10 1014.34 1014.58 1014.78 1014.98 1015.34 1015.54 1015.66 1015.82 1015.86 1015.98 1016.14 1016.46 1016.70 1016.94 1017.14 1017.38 1017.62 1017.82 1018.02 1018.14 1018.34 1018.42 1018.62 1018.74 1019.02 1019.22 1019.54 1019.54 1019.70 1019.66 1019.86 1020.14 1020.26 1020.02 1019.98 1019.90 1019.86 1020.10 1020.26
1013.06 1013.34 1013.66 1013.98 1014.22 1014.54 1014.82 1014.98 1015.14 1015.26 1015.46 1015.62 1015.78 1015.78 1016.06 1016.38 1016.66 1016.86 1017.06 1017.34 1017.42 1017.62 1017.74 1017.86 1018.14 1018.26 1018.42 1018.74 1019.02 1019.26 1019.26 1019.34 1019.22 1019.62 1019.98 1020.14 1019.94 1019.62 1019.62 1019.70 1019.98 1020.22
1012.70 1013.02 1013.30 1013.46 1013.82 1014.06 1014.38 1014.54 1014.70 1014.86 1015.02 1015.10 1015.30 1015.66 1015.70 1016.10 1016.42 1016.62 1016.74 1016.94 1017.06 1017.22 1017.42 1017.66 1017.90 1018.06 1018.10 1018.38 1018.78 1019.06 1019.10 1019.18 1019.18 1019.38 1019.82 1019.82 1019.78 1019.82 1019.50 1019.62 1019.82 1020.02
1011.98 1012.30 1012.70 1013.06 1013.50 1013.70 1014.02 1014.18 1014.34 1014.58 1014.66 1014.90 1015.18 1015.30 1015.42 1015.74 1016.02 1016.14 1016.38 1016.58 1016.82 1017.06 1017.22 1017.34 1017.62 1017.90 1017.94 1018.10 1018.54 1018.82 1018.98 1018.86 1019.10 1019.34 1019.58 1019.62 1019.58 1019.74 1019.66 1019.50 1019.62 1019.90
1011.46 1011.90 1012.26 1012.66 1012.98 1013.18 1013.46 1013.58 1013.86 1014.10 1014.22 1014.66 1014.82 1014.90 1015.06 1015.30 1015.54 1015.74 1016.02 1016.30 1016.54 1016.74 1017.02 1017.22 1017.42 1017.62 1017.74 1017.90 1018.14 1018.46 1018.70 1018.66 1018.62 1018.90 1019.22 1019.42 1019.50 1019.54 1019.42 1019.30 1019.50 1019.66
1011.06 1011.30 1011.70 1012.06 1012.46 1012.54 1012.82 1012.94 1013.10 1013.46 1013.74 1014.14 1014.38 1014.42 1014.74 1014.94 1015.10 1015.34 1015.66 1016.06 1016.38 1016.58 1016.78 1017.02 1017.18 1017.34 1017.46 1017.58 1017.86 1018.06 1018.30 1018.50 1018.50 1018.58 1018.70 1018.86 1018.98 1018.98 1018.98 1019.10 1019.22 1019.42
1010.46 1010.74 1011.18 1011.50 1011.74 1011.86 1012.14 1012.38 1012.54 1012.78 1013.14 1013.62 1013.86 1014.10 1014.18 1014.50 1014.90 1014.98 1015.38 1015.74 1016.10 1016.30 1016.54 1016.74 1016.86 1016.98 1017.22 1017.26 1017.34 1017.46 1017.74 1017.94 1018.14 1018.30 1018.42 1018.50 1018.50 1018.54 1018.58 1018.66 1018.82 1018.94
1009.90 1010.22 1010.54 1010.86 1011.14 1011.30 1011.58 1011.78 1011.98 1012.30 1012.62 1013.06 1013.30 1013.70 1013.86 1013.98 1014.42 1014.74 1014.94 1015.38 1015.58 1015.78 1015.98 1016.26 1016.38 1016.58 1016.78 1016.94 1016.94 1017.06 1017.30 1017.50 1017.62 1017.86 1017.98 1018.10 1018.14 1018.14 1018.18 1018.22 1018.38 1018.46
1009.26 1009.58 1009.82 1010.22 1010.58 1010.78 1010.90 1011.22 1011.54 1011.74 1012.06 1012.50 1012.74 1013.10 1013.46 1013.66 1013.82 1014.30 1014.50 1014.78 1015.10 1015.30 1015.54 1015.78 1016.02 1016.18 1016.38 1016.54 1016.66 1016.74 1016.98 1017.22 1017.30 1017.42 1017.58 1017.66 1017.66 1017.70 1017.62 1017.66 1017.78 1017.86
1008.50 1008.82 1009.26 1009.62 1009.94 1010.38 1010.62 1010.82 1011.06 1011.34 1011.66 1011.94 1012.30 1012.78 1012.98 1013.14 1013.34 1013.74 1014.02 1014.26 1014.54 1014.82 1014.98 1015.22 1015.54 1015.78 1015.98 1016.14 1016.30 1016.46 1016.62 1016.86 1017.02 1017.14 1017.22 1017.30 1017.34 1017.30 1017.22 1017.18 1017.22 1017.22
1007.98 1008.38 1008.78 1009.26 1009.70 1010.10 1010.46 1010.66 1010.82 1011.10 1011.38 1011.66 1012.02 1012.30 1012.34 1012.50 1012.66 1012.98 1013.50 1013.94 1014.10 1014.34 1014.62 1014.74 1015.06 1015.30 1015.38 1015.62 1015.94 1016.18 1016.22 1016.42 1016.62 1016.78 1016.90 1017.06 1017.10 1017.02 1016.98 1016.98 1016.86 1016.70
1007.70 1008.10 1008.54 1008.94 1009.46 1009.86 1010.18 1010.42 1010.62 1010.90 1011.14 1011.54 1011.78 1011.98 1012.10 1012.22 1012.42 1012.66 1012.94 1013.42 1013.86 1014.06 1014.22 1014.38 1014.54 1014.54 1014.74 1015.10 1015.30 1015.54 1015.82 1015.90 1016.06 1016.30 1016.46 1016.62 1016.86 1016.98 1016.82 1016.62 1016.54 1016.42
1007.46 1007.90 1008.26 1008.82 1009.06 1009.42 1009.86 1010.22 1010.46 1010.66 1011.02 1011.38 1011.62 1011.82 1012.02 1012.18 1012.38 1012.62 1012.74 1012.82 1013.26 1013.58 1013.90 1013.94 1013.98 1013.94 1014.30 1014.82 1015.14 1015.34 1015.38 1015.62 1015.86 1016.02 1016.14 1016.34 1016.46 1016.66 1016.78 1016.50 1016.22 1016.10
1007.10 1007.54 1008.06 1008.46 1008.82 1009.26 1009.58 1009.86 1010.18 1010.50 1010.90 1011.18 1011.46 1011.74 1011.90 1011.94 1012.30 1012.46 1012.54 1012.58 1012.74 1012.98 1013.26 1013.38 1013.42 1013.46 1014.02 1014.46 1014.82 1015.10 1015.22 1015.22 1015.30 1015.58 1015.70 1015.90 1016.02 1016.10 1016.14 1016.14 1016.10 1015.94
1006.78 1007.34 1007.78 1008.18 1008.54 1008.86 1009.22 1009.62 1010.02 1010.38 1010.66 1010.98 1011.26 1011.30 1011.54 1011.98 1012.10 1012.26 1012.46 1012.42 1012.50 1012.78 1012.90 1012.82 1012.90 1013.02 1013.70 1014.18 1014.54 1014.86 1015.10 1015.22 1015.02 1015.02 1015.22 1015.38 1015.46 1015.58 1015.66 1015.74 1015.74 1015.82
1006.46 1006.98 1007.50 1007.82 1008.14 1008.58 1008.94 1009.38 1009.74 1010.06 1010.14 1010.26 1010.62 1010.98 1011.38 1011.62 1011.78 1011.98 1012.10 1012.30 1012.38 1012.50 1012.62 1012.50 1012.46 1012.66 1013.30 1013.82 1014.22 1014.62 1014.90 1015.18 1014.94 1014.86 1014.86 1014.90 1014.98 1015.06 1015.14 1015.26 1015.38 1015.58
1006.18 1006.62 1007.14 1007.54 1007.90 1008.26 1008.70 1009.06 1009.34 1009.66 1009.94 1009.98 1010.18 1010.58 1011.02 1011.34 1011.46 1011.70 1011.78 1011.90 1011.98 1012.10 1012.26 1012.34 1012.10 1012.34 1012.90 1013.42 1013.86 1014.34 1014.70 1015.06 1014.82 1014.74 1014.66 1014.66 1014.62 1014.62 1014.70 1014.74 1014.82 1014.94
1005.62 1006.22 1006.74 1007.18 1007.58 1007.98 1008.38 1008.74 1008.98 1009.26 1009.62 1009.66 1009.82 1009.98 1010.14 1010.46 1010.82 1010.90 1011.22 1011.46 1011.46 1011.62 1011.82 1012.06 1011.66 1011.94 1012.54 1013.06 1013.54 1014.02 1014.54 1014.82 1014.62 1014.70 1014.66 1014.50 1014.46 1014.34 1014.34 1014.30 1014.34 1014.42
1005.02 1005.66 1006.26 1006.70 1007.10 1007.58 1007.98 1008.26 1008.62 1008.94 1009.14 1009.18 1009.66 1009.70 1009.90 1010.14 1010.34 1010.46 1010.46 1010.70 1010.94 1011.10 1011.42 1011.46 1011.34 1011.46 1012.06 1012.58 1013.14 1013.66 1014.34 1014.26 1014.26 1014.34 1014.38 1014.42 1014.26 1014.06 1013.98 1013.94 1013.90 1013.90
1004.50 1005.06 1005.70 1006.22 1006.66 1007.14 1007.46 1007.70 1007.94 1008.18 1008.50 1008.58 1009.10 1009.34 1009.46 1009.46 1009.58 1009.78 1009.82 1009.94 1010.22 1010.50 1010.58 1011.02 1010.90 1010.90 1011.54 1012.10 1012.66 1013.26 1013.46 1013.58 1013.78 1013.98 1014.10 1014.14 1013.98 1013.78 1013.58 1013.50 1013.38 1013.54
1004.06 1004.58 1005.18 1005.74 1006.26 1006.58 1006.86 1007.26 1007.50 1007.70 1007.78 1008.02 1008.30 1008.58 1008.78 1008.74 1008.94 1009.22 1009.34 1009.34 1009.38 1009.58 1009.86 1010.34 1010.30 1010.42 1010.98 1011.54 1012.14 1012.66 1012.98 1012.90 1013.10 1013.38 1013.74 1013.66 1013.58 1013.50 1013.22 1013.10 1013.02 1013.02
1003.54 1004.18 1004.66 1005.22 1005.74 1006.14 1006.38 1006.66 1006.86 1007.14 1007.38 1007.66 1007.86 1007.98 1008.30 1008.38 1008.54 1008.74 1009.02 1009.02 1008.86 1009.10 1009.26 1009.54 1009.86 1009.82 1010.34 1010.94 1011.58 1012.14 1012.38 1012.30 1012.38 1012.94 1013.22 1013.18 1013.06 1013.02 1013.06 1012.86 1012.70 1012.58
Wind_Speed
13 12 13 11 11 11 11 11 11 11 11 10 10 9 9 9 9 9 9 8 8 9 9 8 8 8 7 7 7 6 5 6 6 5 6 7 7 7 6 7 6 5
15 14 12 11 10 10 10 11 11 11 11 11 10 8 8 9 9 9 9 9 9 9 9 9 9 9 8 7 7 7 6 6 7 5 6 8 7 7 7 8 7 6
17 16 15 15 13 14 14 12 11 11 11 11 11 9 8 9 9 9 9 9 9 9 9 9 9 9 9 8 7 7 7 7 7 7 7 7 7 7 7 7 6 7
17 17 16 16 14 13 13 12 11 11 11 10 11 10 9 8 9 10 9 9 8 8 8 9 9 9 9 8 8 7 8 7 7 7 7 6 7 7 7 7 6 6
18 18 16 15 13 13 12 13 13 12 12 11 11 11 9 9 9 9 9 9 9 9 8 9 9 9 8 8 8 8 8 8 8 7 7 7 7 7 7 7 7 7
17 16 16 15 14 14 13 13 14 13 13 13 12 10 10 11 10 10 10 10 9 10 10 9 10 9 10 9 8 8 8 8 7 8 8 8 7 7 6 7 7 8
19 17 18 16 16 15 14 13 13 13 12 12 11 11 10 11 11 11 11 10 10 9 10 9 9 9 8 8 8 8 8 8 7 7 8 7 7 8 8 7 7 8
19 18 17 15 16 16 15 14 13 13 12 11 12 12 11 12 12 11 11 11 11 10 10 10 9 9 9 9 9 9 10 8 8 9 9 9 8 8 8 7 7 8
18 17 17 19 19 16 17 16 14 14 13 13 13 12 12 12 12 12 11 11 11 10 10 10 10 10 9 9 9 10 10 9 9 9 10 10 10 9 9 8 9 9
19 17 19 19 18 16 18 17 15 14 14 14 14 12 12 12 12 12 12 11 12 11 11 10 10 10 10 10 11 10 10 10 10 9 9 10 10 10 10 9 9 9
20 19 19 19 19 17 19 18 17 15 14 15 14 14 13 12 12 12 12 12 11 12 12 12 11 11 11 11 10 10 10 10 10 10 10 10 10 10 9 9 10 10
20 19 20 20 19 18 19 18 16 16 15 14 15 15 14 13 13 12 12 13 12 12 12 12 11 11 12 12 12 11 10 10 10 10 10 10 10 10 10 10 10 10
20 20 19 19 18 17 16 16 16 17 16 15 14 15 15 14 14 14 12 13 13 13 13 12 12 12 11 12 11 11 11 11 11 11 11 10 10 11 11 11 11 11
20 19 18 17 16 15 15 16 16 16 15 14 14 15 15 15 15 15 13 13 13 13 13 12 12 12 12 12 11 11 11 11 11 11 11 11 10 11 11 11 11 11
17 17 16 16 16 15 16 15 15 15 14 14 13 14 13 15 15 14 14 13 13 13 13 12 12 12 11 11 12 12 12 12 12 12 11 11 11 11 11 11 11 11
17 15 15 16 16 16 16 15 15 15 15 15 14 14 13 13 13 13 14 14 13 13 13 12 11 11 11 15 13 11 12 10 10 11 11 10 10 10 11 12 12 11
16 16 15 16 16 16 15 15 15 14 13 14 14 13 13 12 12 14 14 13 14 13 14 12 12 11 15 16 15 14 11 10 10 10 10 10 11 10 10 11 11 11
17 17 16 16 16 16 16 15 14 14 14 14 14 14 13 12 13 14 13 13 12 13 14 13 12 13 16 17 17 17 14 11 10 10 9 10 10 11 10 10 11 11
16 17 17 16 16 16 15 14 15 15 15 14 15 14 12 13 13 13 13 13 13 13 13 13 13 13 16 17 17 18 17 15 11 10 10 10 10 11 11 10 10 10
17 17 16 16 15 15 15 15 16 16 16 14 13 13 13 13 14 14 13 13 13 13 12 12 14 12 18 18 18 18 18 16 13 12 11 11 11 11 10 11 11 10
17 17 16 15 15 15 15 15 16 15 15 14 13 14 14 13 14 14 13 13 14 14 13 13 13 13 18 19 18 19 18 15 14 13 11 11 12 12 12 12 11 11
18 17 16 15 16 16 16 16 15 15 15 14 13 12 12 12 13 13 14 14 14 14 14 14 13 15 17 18 19 18 18 12 13 13 13 12 12 12 12 11 12 12
18 18 17 16 17 17 17 16 15 15 14 12 13 13 13 13 13 13 13 14 15 15 15 13 13 14 18 19 19 19 15 12 13 12 12 13 13 12 12 12 12 12
17 17 17 17 16 17 17 16 15 14 14 13 14 14 14 14 13 12 13 14 15 16 15 14 14 14 19 19 20 21 18 13 11 12 12 12 12 13 12 12 13 15
16 17 16 16 16 16 15 15 15 15 13 13 14 14 13 12 12 12 13 13 14 16 15 16 15 13 20 20 21 22 18 13 12 11 12 12 12 12 13 12 12 12
15 16 16 16 16 15 14 14 13 13 14 14 13 12 12 13 13 12 14 12 13 14 13 16 16 12 16 22 21 21 22 14 12 12 12 13 12 11 11 12 12 12
Wind_Direction
206 207 209 205 205 206 203 201 202 202 205 210 211 208 209 207 207 215 217 214 212 217 214 216 219 221 225 228 228 230 239 235 239 226 222 227 227 232 232 231 234 240
205 207 207 207 207 204 205 205 203 204 203 208 215 210 204 202 200 205 210 214 214 218 217 216 217 221 223 226 219 227 229 230 231 226 226 223 232 235 235 233 234 238
206 207 206 209 209 203 203 203 204 205 205 207 207 209 202 197 202 198 205 210 218 222 216 219 221 219 222 223 221 224 224 227 232 232 224 229 233 233 241 236 227 226
205 208 208 209 211 207 203 202 203 206 209 205 207 206 206 203 198 201 202 205 214 218 222 219 222 223 220 222 219 225 226 227 230 233 231 230 232 238 236 239 242 235
201 205 207 208 209 209 202 204 205 203 208 207 206 204 201 203 199 202 200 201 207 213 213 218 218 224 221 221 220 226 227 227 224 226 230 231 231 231 238 238 239 239
198 199 201 204 204 205 204 204 208 207 206 207 207 202 202 198 202 204 204 205 206 211 216 214 214 218 219 218 221 225 230 230 220 215 225 231 238 234 235 232 233 235
193 195 198 199 202 201 205 205 206 209 207 209 202 207 201 200 201 204 206 209 214 213 214 215 218 219 218 218 218 222 225 228 236 223 223 230 233 241 241 237 234 236
193 192 194 195 198 199 202 203 205 205 206 204 207 203 204 203 201 203 204 207 212 211 213 215 211 213 219 217 218 220 221 221 220 219 222 226 233 234 234 238 234 236
190 190 191 195 198 198 201 202 201 204 202 204 207 204 202 207 203 205 202 205 210 209 209 211 210 210 212 218 217 216 219 223 221 215 217 221 223 228 231 231 235 235
190 192 193 195 199 200 201 202 203 202 200 204 205 208 202 203 207 205 202 203 206 208 206 207 206 208 211 212 215 215 217 219 223 222 220 222 226 229 229 231 235 236
190 192 194 197 200 201 201 202 204 202 198 202 203 207 206 200 201 204 203 202 205 205 205 206 206 207 209 213 213 213 216 218 219 220 222 224 228 231 233 235 236 239
191 192 195 197 199 200 202 202 202 203 198 198 202 204 205 205 198 200 201 202 205 204 206 206 207 208 208 212 214 213 212 218 217 220 221 223 226 228 228 229 235 236
191 192 194 196 197 201 201 200 202 201 201 198 199 202 202 205 201 199 200 202 202 205 206 205 206 207 208 209 213 214 213 215 220 219 222 222 225 227 229 229 231 234
191 191 193 194 195 198 200 201 201 201 201 200 197 201 203 204 205 200 200 201 202 204 205 204 205 207 207 209 209 211 211 214 217 222 222 222 224 226 230 232 232 234
188 188 189 188 191 191 197 200 200 200 199 199 198 201 204 206 206 205 199 201 202 203 203 204 206 208 208 206 207 207 211 213 215 218 221 224 226 227 226 230 236 238
183 184 185 187 189 190 193 195 197 197 198 199 199 202 204 207 207 206 205 202 202 201 202 203 207 210 204 201 202 206 206 214 214 217 221 222 223 227 230 229 230 237
180 182 181 185 187 188 188 191 194 194 197 198 200 202 205 201 206 206 209 207 204 203 203 205 207 211 192 188 195 205 210 208 213 215 216 220 222 223 230 232 234 234
179 179 181 183 183 185 186 188 191 193 195 196 199 200 201 203 205 207 209 211 209 208 209 210 214 203 182 186 190 194 204 212 212 216 216 217 221 226 227 231 234 237
176 179 182 182 184 184 184 184 188 193 194 195 198 199 198 202 205 206 208 212 214 214 216 216 221 190 179 183 189 192 198 211 223 222 221 222 222 223 229 231 232 233
178 180 182 183 182 181 183 186 190 194 196 197 198 198 201 204 206 207 208 209 214 217 219 224 229 178 177 182 188 190 195 201 224 228 230 230 228 228 227 229 229 230
180 182 182 182 182 184 187 191 193 194 197 199 201 201 201 204 206 207 209 210 211 215 218 222 231 184 177 183 187 188 191 197 219 228 232 232 232 232 233 233 230 228
181 183 183 183 185 187 191 195 195 196 197 199 204 205 205 204 207 212 211 212 213 215 217 221 225 188 178 182 184 186 182 196 214 224 229 232 231 232 232 232 232 233
184 184 184 186 188 190 195 195 195 196 197 196 202 207 206 207 209 211 213 214 214 213 216 220 226 194 177 180 182 180 176 203 211 219 224 228 234 232 232 233 231 231
186 186 186 187 189 194 195 196 196 196 197 196 202 205 209 210 209 212 212 214 214 215 212 217 224 195 177 180 181 176 184 199 207 214 220 224 229 231 232 233 232 226
184 185 186 188 192 194 194 195 196 197 198 197 203 206 211 211 211 212 214 214 216 217 207 214 225 202 175 180 181 179 187 202 207 212 216 221 224 227 227 231 233 224
181 183 186 190 190 192 195 197 197 199 199 198 202 205 206 211 210 213 216 216 216 217 214 214 222 220 177 181 179 181 189 198 208 212 217 218 222 226 226 226 231 235